This demonstration page uses our WeatherBlox Daily Observations layout. Learn more.

Left ArrowRight Arrow

39.29038, -76.61219

Hourly Observations for February 27, 2021

Temp ( °F °C ) Dew Point ( °F °C ) Humidity (%) Winds ( mph kmh ) Pressure ( in mb ) Visibility ( mi km ) Precip ( " mm )
12:54 am 00:54 Cloudy with Light Rain 37 2.8 34 1.1 89 89 E 8 13 30.33 1027 4 6 0.03 0.76
1:54 am 01:54 Cloudy with Light Rain 37 2.8 34 1.1 89 89 ENE 8 13 30.31 1026 4 6 0.04 1.02
2:54 am 02:54 Cloudy with Light Rain 37 2.8 35 1.7 93 93 ENE 8 13 30.27 1025 4 6 0.03 0.76
3:54 am 03:54 Cloudy with Light Rain 37 2.8 35 1.7 93 93 NE 5 7 30.23 1024 3 5 0.02 0.51
4:08 am 04:08 Cloudy with Light Rain 37 2.8 35 1.7 93 93 NNE 6 9 30.23 1024 2 3 0.01 0.25
4:54 am 04:54 Cloudy with Light Rain 38 3.3 35 1.7 89 89 NE 9 15 30.19 1022 3 4 0.03 0.76
5:54 am 05:54 Cloudy with Light Rain 38 3.3 35 1.7 89 89 N 6 9 30.17 1022 2 3 0.03 0.76
6:54 am 06:54 Cloudy with Drizzle 38 3.3 36 2.2 93 93 NNE 7 11 30.14 1021 2 3 0.02 0.51
7:46 am 07:46 Cloudy with Drizzle 39 3.9 37 2.8 93 93 N N/A 30.14 1021 2 3 0.00 0.00
7:54 am 07:54 Cloudy with Drizzle 39 3.9 37 2.8 93 93 ESE 3 6 30.12 1020 2 3 0.00 0.00
8:28 am 08:28 Cloudy with Light Rain 39 3.9 37 2.8 93 93 N N/A 30.13 1020 3 5 0.01 0.25
8:52 am 08:52 Cloudy with Light Rain 39 4 37 3 93 93 N N/A 30.11 1020 3 5 0.03 0.76
8:54 am 08:54 Cloudy with Light Rain 39 3.9 38 3.3 96 96 N N/A 30.09 1019 4 6 0.03 0.76
9:54 am 09:54 Cloudy with Light Rain 40 4.4 37 2.8 89 89 N N/A 30.07 1018 6 10 0.01 0.25
10:54 am 10:54 Cloudy 42 5.6 39 3.9 89 89 W 7 11 30.07 1018 10 16 0.01 0.25
11:54 am 11:54 Cloudy 44 6.7 39 3.9 83 83 WSW 7 11 30.06 1018 10 16 N/A
12:22 pm 12:22 Mostly Cloudy 45 7.2 39 3.9 80 80 WSW 10 17 30.08 1018 10 16 N/A
12:54 pm 12:54 Mostly Cloudy 47 8.3 40 4.4 77 77 WSW 15 24 30.07 1018 10 16 N/A
1:31 pm 13:31 Cloudy 47 8.3 40 4.4 77 77 W 13 20 30.07 1018 10 16 N/A
1:54 pm 13:54 Cloudy 48 8.9 40 4.4 74 74 W 12 19 30.07 1018 10 16 N/A
2:30 pm 14:30 Mostly Cloudy 49 9.4 40 4.4 71 71 WSW 12 19 30.08 1019 10 16 N/A
2:54 pm 14:54 Partly Cloudy 50 10 41 5 71 71 WSW 8 13 30.08 1019 10 16 N/A
3:54 pm 15:54 Mostly Cloudy 51 10.6 42 5.6 71 71 W 5 7 30.10 1019 10 16 N/A
4:54 pm 16:54 Mostly Cloudy 53 11.7 43 6.1 69 69 WSW 6 9 30.12 1020 10 16 N/A
5:54 pm 17:54 Mostly Cloudy 52 11.1 42 5.6 69 69 SW 5 7 30.14 1021 10 16 N/A
6:54 pm 18:54 Mostly Cloudy 48 8.9 41 5 77 77 N N/A 30.19 1022 10 16 N/A
7:54 pm 19:54 Partly Cloudy 46 7.8 41 5 83 83 N N/A 30.20 1023 10 16 N/A
8:54 pm 20:54 Mostly Clear 43 6.1 40 4.4 89 89 N N/A 30.21 1023 10 16 N/A
9:54 pm 21:54 Mostly Clear 42 5.6 39 3.9 89 89 N N/A 30.24 1024 10 16 N/A
10:54 pm 22:54 Cloudy 43 6.1 40 4.4 89 89 N N/A 30.27 1025 10 16 N/A
11:54 pm 23:54 Cloudy 42 5.6 39 3.9 89 89 N N/A 30.27 1025 10 16 N/A

Powered by AerisWeather